Regional Weather Roundup
Issued by NWS

Home | Current Version | Previous Version | Text Only | Print | Product List | Glossary On
Versions: 1 2 3 4 5 6 7 8 9 10 11 12 13 14 15 16 17 18 19 20 21 22 23 24 25 26 27 28 29 30 31 32 33 34 35 36 37 38 39 40 41 42 43 44 45 46 47 48 49 50
000
ASHW40 PHFO 231943
RWRHI

WEATHER ROUNDUP FOR HAWAII
NATIONAL WEATHER SERVICE HONOLULU HI
900 AM HST SUN APR 23 2017

THIS IS AN AUTOMATED REPORT THAT HAS NOT BEEN QUALITY CONTROLLED.

NOTE..."FAIR" INDICATES FEW OR NO CLOUDS BELOW 12,000 FEET WITH NO
SIGNIFICANT WEATHER AND/OR OBSTRUCTIONS TO VISIBILITY.

* - THESE SITES REPORT LIMITED FIELDS

HIZ001>004-232000-
KAUAI-NIIHAU-

CITY           SKY/WX    TMP DP  RH WIND       PRES   REMARKS
LIHUE APT      PTSUNNY   81  70  69 E14G22    30.12R
PORT ALLEN*      N/A     81 N/A N/A E16         N/A
POIPU*           N/A     77 N/A N/A NE8G16      N/A
PRINCEVILLE*     N/A     73 N/A N/A SE9G16      N/A
KOKOLE POINT*  NOT AVBL
MOLOAA DAIRY*    N/A     79 -29   1 E8G18       N/A
WAIMEA HTS*      N/A     82  70  65 E12G18      N/A
PUU OPAE*      NOT AVBL
PUU LUA*       NOT AVBL
MAKAHA RIDGE*    N/A     73  68  83 W1          N/A
$$

HIZ005>011-232000-
OAHU-

CITY           SKY/WX    TMP DP  RH WIND       PRES   REMARKS
HONOLULU       PTSUNNY   78  69  73 E10       30.08S
KALAELOA       MOSUNNY  N/A N/A N/A VRB6      30.09S
KANEOHE MCB    NOT AVBL
WHEELER FIELD  FAIR      74  71  91 E7        30.09S
BELLOWS*         N/A    N/A N/A N/A NE16        N/A
KAHUKU*          N/A    N/A N/A N/A NE8G16      N/A
WHEELER*         N/A    N/A N/A N/A E8G14       N/A
WAIANAE HARBOR   N/A    N/A N/A N/A NE8G17      N/A
DILLINGHAM*      N/A     79  72  78 SW5         N/A
KAHUKU TRN*      N/A     73  73 100 W8G18       N/A
KAWAILOA*        N/A     72  68  88 E7G14       N/A
KII*             N/A     75  72  88 E16G24      N/A
MAKUA RANGE*     N/A     81  68  65 SW9         N/A
OAHU FOREST NW NOT AVBL
SCHOFIELD BRK*   N/A     72  66  83 MISG        N/A
SCHOFIELD S*   NOT AVBL
WAIANAE VLY*   NOT AVBL
KUAOKALA*      NOT AVBL
HONOULIUULI*   NOT AVBL
MOKUOLOE IS*   NOT AVBL
PALEHUA*       NOT AVBL
WAIAWA PHB*    NOT AVBL
$$

HIZ012>013-232000-
MOLOKAI-

CITY           SKY/WX    TMP DP  RH WIND       PRES   REMARKS
MOLOKAI AIRPT  MOSUNNY   80  67  64 N8        30.09R
KALAUPAPA      NOT AVBL
MAKAPULAPAI*     N/A     82  70  65 E18G26      N/A
MOLOKAI 1*     NOT AVBL
PUU ALII*        N/A     60  60  99 NE2G12      N/A
$$

HIZ016-232000-
KAHOOLAWE-

CITY           SKY/WX    TMP DP  RH WIND       PRES   REMARKS
KAHOOLAWE*     NOT AVBL
HAKIOAWA*        N/A     76  69  78 MISG      30.49S
HONOKANAIA*      N/A     77  66  68 NE17G29   30.01R
KANELOA*         N/A     75  68  78 E22G37    30.12R
KEALIALALO*    NOT AVBL
LUA MAKIKA*    NOT AVBL
$$

HIZ014>015-232000-
LANAI-

CITY           SKY/WX    TMP DP  RH WIND       PRES   REMARKS
LANAI CITY     PTSUNNY   75  66  73 CALM      30.13S
LANAI 1*       NOT AVBL
$$

HIZ017>028-232000-
MAUI-

CITY           SKY/WX    TMP DP  RH WIND       PRES   REMARKS
KAHULUI        CLOUDY    79  66  64 NE10      30.07R
KAPALUA-W MAUI PTSUNNY   79  63  57 E10       30.09
HANA AIRPORT   NOT AVBL
HANA*            N/A     77 N/A N/A SE7G15      N/A
HALEAKALA SUMM   N/A     45  12  26 E31         N/A
MAALAEA BAY*     N/A     79 N/A N/A N13G20      N/A
HALEAKALA*     NOT AVBL
KAUPO GAP*     NOT AVBL
KULA 1*          N/A     56  53  90 W3G12       N/A
$$

HIZ023>026-232000-
BIG ISLAND OF HAWAII COAST AND LOWER SLOPES-

CITY           SKY/WX    TMP DP  RH WIND       PRES   REMARKS
KAILUA KONA    MOSUNNY   81  65  58 S8        30.05R
HILO           PTSUNNY   79  66  64 S6        30.11S
HONOKAA*         N/A     75 N/A N/A VRB1        N/A
KAWAIHAE MWT*    N/A     81 N/A N/A NW7         N/A
KAWAIHAE*        N/A     79 N/A N/A NW10      30.06S
SOUTH POINT*     N/A     75 N/A N/A N21G29      N/A
UPOLU AIRPORT* NOT AVBL
KAMUELA*       CLEAR     75  55  50 W7        30.17S
HAKALAU*         N/A    N/A N/A N/A S9G16       N/A
KALOKO-HONOKO* NOT AVBL
PALI 2*          N/A     73  52  46 SW10G17     N/A
KEALAKOMO*       N/A     81  59  47 NE9G18      N/A
KAUPULEHU*     NOT AVBL
KAPAPALA*        N/A     77  58  51 E6G13       N/A
LOWER KAHUKU*    N/A     66  57  72 NE3G14      N/A
PUHE CS*         N/A    N/A N/A N/A W6G12       N/A
PUHO CS*         N/A     85  65  50 W2          N/A
PTA KEAMUKU*     N/A     72  54  53 CALM        N/A
WAIKOLOA*        N/A     81  63  54 NW6G13      N/A
$$

HIZ027>028-232000-
BIG ISLAND OF HAWAII INTERIOR AND SUMMMITS-

CITY           SKY/WX    TMP DP  RH WIND       PRES   REMARKS
BRADSHAW FIELD MOSUNNY   66   9  10 SE18G24   30.36R
MK VISITOR CEN   N/A     52   7  16 E14         N/A
MAUNA KEA*       N/A     43 -13   9 NE15        N/A
MAUNA LOA*     NOT AVBL
MAUNA LOA 1*   NOT AVBL
PTA KIPUKA*      N/A     66  46  48 W3          N/A
PTA RANGE 17*    N/A     66   7   9 SE13G21     N/A
PTA WEST*        N/A     66  50  55 N5          N/A
NENE CABIN*      N/A     57  39  51 E9G18       N/A
AHUMOA*          N/A    N/A N/A N/A NW7         N/A
PTA PORTABLE*  NOT AVBL
PUU MALI*        N/A     59  46  63 SW3G12      N/A
$$

HIC003-232000-
NORTHWEST ISLANDS-

CITY           SKY/WX    TMP DP  RH WIND       PRES   REMARKS
MIDWAY ISLAND  SUNNY     73  70  88 SW8       30.08R
MIDWAY NOS*      N/A     73 N/A N/A MISG      30.06S
FRENCH FRIGATE NOT AVBL
$$

PHZ110>124-180-232000-
BUOY REPORTS

STATION/POSITION TIME  TEMP    WIND        PRES    WAVE   SWELL
                       AIR SEA DIR/SP/G            HT/PER HT/DIR
                 (UTC) (F)     (DEG/KT/KT) (MB)    (FT/S) (FT/D)
BUOY 51001       1930   74 76  120/ 16/ 19 1019.9R
BUOY 51101       1850   75 76   90/ 14/ 16 1019.9R   6/11   5/360
BUOY 51100       NOT AVBL
BUOY 51002       1920   78 79   90/ 19/ 23 1017.0
BUOY 51003       1850   78 79   80/  8/ 10 1017.7    7/ 8   7/ 90
BUOY 51004       1850      77   80/ 16/ 19 1018.3R   9/ 8   7/110
BARBERS PT BUOY  NOT AVBL
WAIMEA BAY BUOY  1902      77                N/A     6/13   3/ 10
KAILUA BAY BUOY  1904      78                N/A     7/12   3/360
LANAI BUOY       1915      79                N/A     3/12   2/230
BARBERS PT 2     NOT AVBL
PAUWELA MAUI     1909      78                N/A     7/12   3/340
HILO             1912      78                N/A     7/13   3/350
KANEOHE BAY BUOY 1925      78                N/A     7/13   3/ 10
HANALEI KAUAI    1922      78                N/A     8/11   5/340
KAHULUI HARBOR   1912   77 78   50/ 16/ 18 1018.4
HONOLULU HARBOR  1912   80 79   90/  3/ 11 1019.5
KILO NALU        NOT AVBL
HILO HARBOR      1912   82 76  180/  6/ 10 1019.3
MOKUOLOE         1836   77 78   90/ 11/ 19 1019.1R
NAWILIWILI       1912   77 79   70/ 14/ 17 1019.2
WHOTS BUOY       NOT AVBL
BUOY 51028       NOT AVBL
$$

......................KEY........................................
  SKY/WX - SKY CONDITIONS/PRESENT WEATHER
  TMP    - TEMPERATURE IN FAHRENHEIT
  DWPT   - DEWPOINT IN FAHRENHEIT
  RH     - RELATIVE HUMIDITY IN PERCENT
  WIND   - DIRECTION AND SPEED /MPH FOR ISLANDS...KTS FOR BUOYS/
  PRES   - MEAN SEA LEVEL PRESSURE IN INCHES OF HG
  VSB    - VISIBILITY IN MILES
  HX     - HEAT INDEX
  WCI    - WIND CHILL INDEX
  VRB    - VARIABLE WIND DIRECTION
  N/A    - NOT AVAILABLE



USA.gov is the U.S. government's official web portal to all federal, state and local government web resources and services.